Phoenix Cross — MRBQ7 — position and weather

sailwx.info

Track history (hours):
 
Tides and Currents Weather Stations Pressure Air Temp Water Temp Dewpoint Dewpoint Depression Visibility Wind Speed Wind Dir Waves Ship Positions

Phoenix Cross

Last reported at 2014-Oct-20 16:31 UTC. Time now 2014-Oct-21 12:09 UTC.
Position N 54°35' W 001°13'.

Length 30 m; draft 5 m.

Type: Ship. MMSI: 235067452.

Date/timePositionNaut miles runAvg speedWind from/ knotsBaromVisibWave heightAir tempDewpointWater temp
2014-Oct-20 16:31N 54°35' W 001°13'0 0.0
2014-Oct-20 15:32N 54°35' W 001°13'0 0.0
2014-Oct-20 14:33N 54°35' W 001°13'0 0.0
2014-Oct-20 13:32N 54°35' W 001°13'0 0.0
2014-Oct-20 12:32N 54°35' W 001°13'0 0.0
2014-Oct-20 11:33N 54°35' W 001°13'0 0.0
2014-Oct-20 10:33N 54°35' W 001°13'0 0.0
2014-Oct-20 09:33N 54°35' W 001°13'0 0.0
2014-Oct-20 08:33N 54°35' W 001°13'0 0.1
2014-Oct-20 07:08N 54°35' W 001°13'3 5.6
2014-Oct-20 06:34N 54°37' W 001°09'1 1.4
2014-Oct-20 05:33N 54°39' W 001°09'5 0.2
2014-Oct-19 10:30N 54°35' W 001°13'0 0.0
2014-Oct-19 09:33N 54°35' W 001°13'0 0.0
2014-Oct-19 08:31N 54°35' W 001°13'3 3.2
2014-Oct-19 07:34N 54°37' W 001°10'1 1.3
2014-Oct-19 06:34N 54°39' W 001°09'4 3.0
2014-Oct-19 05:05N 54°35' W 001°13'0 0.0
2014-Oct-18 16:33N 54°35' W 001°13'0 0.0
2014-Oct-18 15:33N 54°35' W 001°13'0 0.0
2014-Oct-18 14:33N 54°35' W 001°13'0 0.0
2014-Oct-18 13:32N 54°35' W 001°13'0 0.0
2014-Oct-18 12:33N 54°35' W 001°13'0 0.0
2014-Oct-18 11:33N 54°35' W 001°13'0 0.0
2014-Oct-18 10:32N 54°35' W 001°13'0 0.0
2014-Oct-18 09:33N 54°35' W 001°13'0 0.0
2014-Oct-18 08:32N 54°35' W 001°13'0 0.0
2014-Oct-18 07:33N 54°35' W 001°13'0 0.0
2014-Oct-18 01:11N 54°35' W 001°13'0 0.0
2014-Oct-17 16:33N 54°35' W 001°13'0 0.0
2014-Oct-17 15:31N 54°35' W 001°13'0 0.0
2014-Oct-17 14:31N 54°35' W 001°13'0 0.0
2014-Oct-17 13:33N 54°35' W 001°13'0 0.0
2014-Oct-17 12:30N 54°35' W 001°13'4 0.7
2014-Oct-17 06:13N 54°38' W 001°09'4 0.2
2014-Oct-16 09:27N 54°35' W 001°13'0 0.0
2014-Oct-16 08:33N 54°35' W 001°13'0 0.1
2014-Oct-16 07:14N 54°35' W 001°13'3 4.4
2014-Oct-16 06:33N 54°37' W 001°10'0 0.2
2014-Oct-16 05:32N 54°37' W 001°09'3 0.1
2014-Oct-14 09:32N 54°35' W 001°13'0 0.0
2014-Oct-14 08:33N 54°35' W 001°13'0 0.0
2014-Oct-14 07:33N 54°35' W 001°13'3 2.9
2014-Oct-14 06:34N 54°37' W 001°09'1 0.9
2014-Oct-14 05:33N 54°36' W 001°10'2 0.1
2014-Oct-12 17:04N 54°35' W 001°13'0 0.0
2014-Oct-12 16:33N 54°35' W 001°13'2 2.4
2014-Oct-12 15:33N 54°36' W 001°09'1 1.2
2014-Oct-12 14:33N 54°37' W 001°09'3 3.1
2014-Oct-12 13:32N 54°35' W 001°12'0 0.1
2014-Oct-12 12:33N 54°35' W 001°13'0 0.0
2014-Oct-12 11:33N 54°35' W 001°13'0 0.0
2014-Oct-12 10:31N 54°35' W 001°13'0 0.0
2014-Oct-12 09:33N 54°35' W 001°13'0 0.0
2014-Oct-12 08:32N 54°35' W 001°13'0 0.0
2014-Oct-12 07:32N 54°35' W 001°13'0 0.0
2014-Oct-12 06:34N 54°35' W 001°13'4 1.9
2014-Oct-12 04:11N 54°39' W 001°09'0 0.0
2014-Oct-11 17:28N 54°39' W 001°08'1 1.5
2014-Oct-11 16:32N 54°38' W 001°10'1 1.0
2014-Oct-11 15:33N 54°38' W 001°11'1 0.7
2014-Oct-11 14:33N 54°38' W 001°10'3 3.4
2014-Oct-11 13:33N 54°35' W 001°13'0 0.0
2014-Oct-11 12:33N 54°35' W 001°13'0 0.0
2014-Oct-11 11:33N 54°35' W 001°13'0 0.0
2014-Oct-11 10:32N 54°35' W 001°13'0 0.0
2014-Oct-11 09:33N 54°35' W 001°13'0 0.0
2014-Oct-11 08:32N 54°35' W 001°13'3 3.0
2014-Oct-11 07:32N 54°37' W 001°10'0 0.4
2014-Oct-11 06:33N 54°38' W 001°10'1 0.1
2014-Oct-10 18:06N 54°39' W 001°09'1 2.6
2014-Oct-10 17:32N 54°37' W 001°09'3 3.3
2014-Oct-10 16:33N 54°41' W 001°09'  
Track history (hours):
 
Tides and Currents Weather Stations Pressure Air Temp Water Temp Dewpoint Dewpoint Depression Visibility Wind Speed Wind Dir Waves Ship Positions

Phoenix Cross

Last reported at 2014-Oct-20 16:31 UTC. Time now 2014-Oct-21 12:09 UTC.
Position N 54°35' W 001°13'.

Length 30 m; draft 5 m.

Type: Ship. MMSI: 235067452.

Date/timePositionNaut miles runAvg speedWind from/ knotsBaromVisibWave heightAir tempDewpointWater temp
2014-Oct-20 16:31N 54°35' W 001°13'0 0.0
2014-Oct-20 15:32N 54°35' W 001°13'0 0.0
2014-Oct-20 14:33N 54°35' W 001°13'0 0.0
2014-Oct-20 13:32N 54°35' W 001°13'0 0.0
2014-Oct-20 12:32N 54°35' W 001°13'0 0.0
2014-Oct-20 11:33N 54°35' W 001°13'0 0.0
2014-Oct-20 10:33N 54°35' W 001°13'0 0.0
2014-Oct-20 09:33N 54°35' W 001°13'0 0.0
2014-Oct-20 08:33N 54°35' W 001°13'0 0.1
2014-Oct-20 07:08N 54°35' W 001°13'3 5.6
2014-Oct-20 06:34N 54°37' W 001°09'1 1.4
2014-Oct-20 05:33N 54°39' W 001°09'5 0.2
2014-Oct-19 10:30N 54°35' W 001°13'0 0.0
2014-Oct-19 09:33N 54°35' W 001°13'0 0.0
2014-Oct-19 08:31N 54°35' W 001°13'3 3.2
2014-Oct-19 07:34N 54°37' W 001°10'1 1.3
2014-Oct-19 06:34N 54°39' W 001°09'4 3.0
2014-Oct-19 05:05N 54°35' W 001°13'0 0.0
2014-Oct-18 16:33N 54°35' W 001°13'0 0.0
2014-Oct-18 15:33N 54°35' W 001°13'0 0.0
2014-Oct-18 14:33N 54°35' W 001°13'0 0.0
2014-Oct-18 13:32N 54°35' W 001°13'0 0.0
2014-Oct-18 12:33N 54°35' W 001°13'0 0.0
2014-Oct-18 11:33N 54°35' W 001°13'0 0.0
2014-Oct-18 10:32N 54°35' W 001°13'0 0.0
2014-Oct-18 09:33N 54°35' W 001°13'0 0.0
2014-Oct-18 08:32N 54°35' W 001°13'0 0.0
2014-Oct-18 07:33N 54°35' W 001°13'0 0.0
2014-Oct-18 01:11N 54°35' W 001°13'0 0.0
2014-Oct-17 16:33N 54°35' W 001°13'0 0.0
2014-Oct-17 15:31N 54°35' W 001°13'0 0.0
2014-Oct-17 14:31N 54°35' W 001°13'0 0.0
2014-Oct-17 13:33N 54°35' W 001°13'0 0.0
2014-Oct-17 12:30N 54°35' W 001°13'4 0.7
2014-Oct-17 06:13N 54°38' W 001°09'4 0.2
2014-Oct-16 09:27N 54°35' W 001°13'0 0.0
2014-Oct-16 08:33N 54°35' W 001°13'0 0.1
2014-Oct-16 07:14N 54°35' W 001°13'3 4.4
2014-Oct-16 06:33N 54°37' W 001°10'0 0.2
2014-Oct-16 05:32N 54°37' W 001°09'3 0.1
2014-Oct-14 09:32N 54°35' W 001°13'0 0.0
2014-Oct-14 08:33N 54°35' W 001°13'0 0.0
2014-Oct-14 07:33N 54°35' W 001°13'3 2.9
2014-Oct-14 06:34N 54°37' W 001°09'1 0.9
2014-Oct-14 05:33N 54°36' W 001°10'2 0.1
2014-Oct-12 17:04N 54°35' W 001°13'0 0.0
2014-Oct-12 16:33N 54°35' W 001°13'2 2.4
2014-Oct-12 15:33N 54°36' W 001°09'1 1.2
2014-Oct-12 14:33N 54°37' W 001°09'3 3.1
2014-Oct-12 13:32N 54°35' W 001°12'0 0.1
2014-Oct-12 12:33N 54°35' W 001°13'0 0.0
2014-Oct-12 11:33N 54°35' W 001°13'0 0.0
2014-Oct-12 10:31N 54°35' W 001°13'0 0.0
2014-Oct-12 09:33N 54°35' W 001°13'0 0.0
2014-Oct-12 08:32N 54°35' W 001°13'0 0.0
2014-Oct-12 07:32N 54°35' W 001°13'0 0.0
2014-Oct-12 06:34N 54°35' W 001°13'4 1.9
2014-Oct-12 04:11N 54°39' W 001°09'0 0.0
2014-Oct-11 17:28N 54°39' W 001°08'1 1.5
2014-Oct-11 16:32N 54°38' W 001°10'1 1.0
2014-Oct-11 15:33N 54°38' W 001°11'1 0.7
2014-Oct-11 14:33N 54°38' W 001°10'3 3.4
2014-Oct-11 13:33N 54°35' W 001°13'0 0.0
2014-Oct-11 12:33N 54°35' W 001°13'0 0.0
2014-Oct-11 11:33N 54°35' W 001°13'0 0.0
2014-Oct-11 10:32N 54°35' W 001°13'0 0.0
2014-Oct-11 09:33N 54°35' W 001°13'0 0.0
2014-Oct-11 08:32N 54°35' W 001°13'3 3.0
2014-Oct-11 07:32N 54°37' W 001°10'0 0.4
2014-Oct-11 06:33N 54°38' W 001°10'1 0.1
2014-Oct-10 18:06N 54°39' W 001°09'1 2.6
2014-Oct-10 17:32N 54°37' W 001°09'3 3.3
2014-Oct-10 16:33N 54°41' W 001°09'  

Dump ship's entire track history